DIRECTV 14 (40333 NORAD) Tracking and Keplerian Element Data

This shows tracking and keplerian element data for the satellite.

Feedback or suggestion? Click here.




ElementValue
Catalog40333
NameDIRECTV 14
Epoch Orbit1324
Epoch Day198.37194214
Epoch Year2018
RAAN49.0542
Inclination0.0166
Eccentricity0.0001176
Argument of Perigee310.6658
Mean Anonmoly330.0886
Mean Motion1.00269117
Decay Rate-1.45E-06
L11 40333U 14078B 18198.37194214 -.00000145 00000-0 00000+0 0 9991
L22 40333 0.0166 49.0542 0001176 310.6658 330.0886 1.00269117 13241

Live tracking and technical data element details for DIRECTV 14 (NORAD 40333). DIRECTV 14 can be tracked NOW for your location showing map with azimuth and elevation plus other details from your city location.

Track the satellite on the map from your city or location and see movement details for azimuth, elevation, latitude, longitude, range, height, and movement on the map or in text.







IsCatalogInMostPopularTable: catalog: 40333, numindb: 57
Update: records affected: 1



GetName: 40333 DIRECTV 14

Hit Count: updated at: Sat, 21 Jul 2018 07:41:59 GMT